Welcome to the New NWS' Forecast!
Most changes are behind the scenes, but click here for differences you might notice.

Regional Weather Roundup (RWR)

Issued by Gray - Portland, ME (GYX)

                            
000
ASUS41 KGYX 172010
RWRGYX
WEATHER ROUNDUP FOR MAINE AND NEW HAMPSHIRE
NATIONAL WEATHER SERVICE GRAY ME
400 PM EDT WED OCT 17 2018

MEZ002-005-006-010-012-015-018-020-021-024-026-027-029-172100-
MAINE
  
CITY           SKY/WX    TMP DP  RH WIND       PRES   REMARKS
PORTLAND       FAIR      56  34  43 W23G33    29.68F                  
SANFORD        FAIR      54  37  52 SW13G22   29.71R                  
BAR HARBOR     CLOUDY    54  37  52 VRB3      29.64F                  
WISCASSET      FAIR      57  37  47 W8        29.66F                  
ROCKLAND       CLOUDY    55  42  61 SW12      29.65S                  
FRYEBURG       LGT RAIN  50  37  61 NW10G21   29.70R                  
LEWISTONAUBURN FAIR      55  35  47 W15G21    29.67R                  
AUGUSTA        LGT RAIN  46  40  79 W10G22    29.69R                  
BANGOR         PTSUNNY   54  37  52 W6        29.63F                  
GREENVILLE       N/A     44  33  65 NW9G18    29.59R                  
MILLINOCKET    FAIR      47  43  86 VRB3      29.61F                  
HOULTON        LGT RAIN  44  43  96 S5        29.58S                  
PRESQUE ISLE   FAIR      46  37  71 SW12G17   29.55F                  
FRENCHVILLE    CLOUDY    45  37  73 W13       29.51S                  
CARIBOU        FAIR      45  37  73 W10       29.53S                  
$$

NHZ002-005-008-009-011-012-014-172100-
NEW HAMPSHIRE
  
CITY           SKY/WX    TMP DP  RH WIND       PRES   REMARKS
PORTSMOUTH     CLOUDY    56  36  47 W14       29.70S                  
ROCHESTER      CLOUDY    50  43  77 CALM      29.71R                  
NASHUA         CLOUDY    56  38  50 W20G29    29.76R                  
MANCHESTER     LGT RAIN  54  39  57 W13G21    29.75R                  
CONCORD        LGT RAIN  47  42  83 W13G24    29.77R                  
LACONIA        LGT RAIN  46  40  79 W8        29.73R                  
PLYMOUTH       CLOUDY    48  36  63 NW7       29.72R                  
BERLIN         CLOUDY    44  38  79 VRB5      29.69S                  
WHITEFIELD     LGT RAIN  42  37  82 W8G21     29.72R                  
JAFFREY        LGT RAIN  45  43  93 W8G24     29.79R FOG              
KEENE          CLOUDY    46  42  86 NW5       29.81R                  
LEBANON        FAIR      50  36  58 SW10      29.73F                  
MT WASHINGTON  SNOWSHWR  23  23 100 W56G66      N/A  VSB 0   WCI   1  
$$

VTZ005-007-008-172100-
VERMONT
  
CITY           SKY/WX    TMP DP  RH WIND       PRES   REMARKS
ST JOHNSBURY     N/A     44  38  79 MISG      29.72R                  
MONTPELIER     PTSUNNY   42  38  85 NW3       29.78R                  
BURLINGTON     PTSUNNY   48  31  51 W14G25    29.76R                  
$$

MAZ007-012-024-CTZ003-RIZ002-NYZ038-NYZ072-172100-
SOUTHERN NEW ENGLAND AND NY
  
CITY           SKY/WX    TMP DP  RH WIND       PRES   REMARKS
BOSTON         FAIR      62  36  37 W15G26    29.73F                  
WORCESTER      PTSUNNY   53  35  50 W20G28    29.76S                  
NANTUCKET      FAIR      61  44  53 W26G33    29.78F                  
PROVIDENCE     FAIR      62  38  40 W15       29.78S                  
HARTFORD       PTSUNNY   59  38  45 SW18      29.80S                  
ALBANY         LGT RAIN  48  37  65 W15       29.88R                  
NEW YORK CITY  PTSUNNY   63  36  36 W22G36    29.86S                  
$$

ANZ081-ANZ082-ANZ150-NHZ014-MEZ023>029-172100-
COASTAL MARINE OBSERVATIONS
  
STATION/POSITION TIME  TEMP    WIND        PRES    WAVE
                       AIR SEA DIR/SP/G            HT/PER
                 (UTC) (F)     (DEG/KT/KT) (MB)    (FT/S)
MOUNT DESERT ROC 2000   53     230/ 26/ 29 1004.1F
MATINICUS ROCK   1900   53     240/ 28/ 31 1004.4F
ISLE OF SHOALS   1900   58     280/ 19/ 21 1005.3F
JEFFREYS LEDGE   1936      57                N/A     3/ 4
$$

.............KEY..............
   WCI - WIND CHILL
   TC  - TEMPERATURE IN CELSIUS
   VSB - VISIBILITY IN MILES
   HX  - HEAT INDEX
   FAIR- INDICATES FEW OR NO CLOUDS BELOW 12,000 FT, WITH NO 
         SIGNIFICANT WEATHER AND/OR OBSTRUCTIONS TO VISIBILITY.